Flag for U.S.A. Weather past 2 weeks in Rapid City, South Dakota, U.S.A.

43 °F


Feels Like: 40 °F
Forecast: 43 / 73 °F
Wind: 6 mph from West

Location: Ellsworth Air Force Base

Current Time: Oct 9, 2015 at 12:49:53 AM

Latest Report: Oct 8, 2015 at 11:58 PM

Visibility: 10 mi

Pressure: 30.33 "Hg (26.91 "Hg at 977m altitude)

Humidity: 91%

Dew point: 41 °F

Location of Rapid CityLocation

Historic Weather in Rapid City — Graph


Rapid City temperature yesterday

Maximum temperature yesterday: 62 °F (at 3:58 PM)
Minimum temperature yesterday: 43 °F (at 11:58 PM)
Average temperature yesterday: 56 °F

Past Weeks' High & Low Weather Summary

High90 °F (Sep 26, 3:58 PM)100% (Sep 24, 3:58 AM)30.33 "Hg (Sep 24, 3:58 AM)
Low43 °F (Oct 8, 11:58 PM)27% (Sep 26, 3:58 PM)29.65 "Hg (Sep 27, 3:58 AM)
Average58 °F81%30.06 "Hg
* Reported Sep 23 11:58 PM — Oct 8 11:58 PM, Rapid City, Weather by CustomWeather, © 2015

Note: Actual official high and low records may vary slightly from our data, if they occured in-between our weather recording intervals... More about our weather records


Rapid City weather history for previous 24 hours

Time TempWeatherWind HumidityBarometerVisibility
11:58 PM
Thu, Oct 8
43 °FClear.6 mph91%30.33 "Hg10 mi
10:58 PM46 °FClear.8 mph91%30.32 "Hg10 mi
9:59 PM48 °FClear.5 mph86%30.32 "Hg10 mi
8:58 PM48 °FClear.8 mph88%30.32 "Hg10 mi
7:58 PM51 °FClear.9 mph82%30.30 "Hg10 mi
6:58 PM55 °FClear.8 mph72%30.28 "Hg10 mi
5:58 PM60 °FSunny.9 mph62%30.25 "Hg10 mi
4:58 PM62 °FPartly sunny.12 mph56%30.24 "Hg10 mi
3:58 PM62 °FPartly sunny.13 mph56%30.23 "Hg10 mi
1:58 PM61 °FPartly sunny.12 mph71%30.21 "Hg10 mi
12:58 PM57 °FDrizzle. Overcast.12 mph82%30.24 "Hg10 mi
11:58 AM57 °FLight rain. Partly sunny.14 mph80%30.25 "Hg10 mi
10:58 AM55 °FMostly cloudy.12 mph88%30.24 "Hg10 mi
9:58 AM54 °FLight rain. Partly sunny.5 mph91%30.22 "Hg10 mi
8:58 AM54 °FLight rain. Overcast.10 mph84%30.19 "Hg10 mi
7:59 AM53 °FLight rain. Overcast.13 mph84%30.17 "Hg10 mi
5:58 AM60 °FDrizzle. Mostly cloudy.10 mph53%30.10 "Hg10 mi
5:04 AM61 °FPassing clouds.13 mph45%30.12 "Hg10 mi
4:58 AM60 °FPartly cloudy.12 mph52%30.06 "Hg10 mi
3:58 AM58 °FOvercast.9 mph57%30.05 "Hg10 mi
2:58 AM60 °FOvercast.13 mph51%30.05 "Hg10 mi
1:58 AM61 °FPassing clouds.10 mph51%30.04 "Hg10 mi
12:58 AM56 °FMostly cloudy.12 mph63%30.03 "Hg10 mi
Weather by CustomWeather, © 2015

See weather overviewHow to use our weather pages